[[{"header":{"parameterUnit":"m.s-1","parameterCategory":1,"la1":30.2991,"la2":30.254,"lo1":-89.0895,"lo2":-89.0444,"dy":0.0017,"dx":0.0017,"nx":28,"ny":28,"refTime":"2024-07-04T03:00:00:Z","depth":0,"parameterNumber":2,"parameterNumberName":"U-component_of_WINDS"},"data":[0,0,0,0,0,0,0,0,0,0,0,0,0,0,0,0,0,0,0,0,0,0,0,0,0,0,0,0,0,0,0,0,0,0,0,0,0,0,0,0,0,0,0,0,0,0,0,0,0,0,0,0,0,0,0,0,0,0,2.638,2.6381,0,2.6461,2.6462,2.6463,2.6472,2.6471,2.647,2.647,2.6557,2.656,2.6563,0,0,0,0,0,0,0,0,0,0,0,0,0,2.6237,2.624,2.638,2.6381,2.6382,2.6461,2.6462,2.6463,2.6472,2.6471,2.647,2.6469,2.6556,2.656,2.6564,0,0,0,0,0,0,0,0,0,0,0,0,0,2.6307,2.6241,2.6379,2.6396,2.6398,2.6461,2.6462,2.6463,2.6472,2.6471,2.647,2.6469,2.6555,2.656,2.6564,2.6618,0,0,2.6578,2.658,0,0,0,0,0,0,0,0,2.6303,2.6312,2.6392,2.6395,2.6397,2.6455,2.6444,2.6515,2.6473,2.6444,2.647,2.6468,2.6525,2.6532,2.655,2.6622,2.6626,2.6579,2.6582,2.6584,2.6585,0,0,0,0,0,0,0,2.6298,2.6309,2.6412,2.6393,2.6396,2.64,2.6409,2.6457,2.6491,2.6447,2.6447,2.6457,2.6526,2.6545,2.6552,2.6627,2.6579,2.6583,2.6586,2.6588,2.6748,2.6749,0,0,0,0,0,0,2.629,2.6305,2.6409,2.6414,2.6346,2.6404,2.6414,2.6438,2.649,2.6497,2.6458,2.6457,2.6538,2.6546,2.6555,2.662,2.6584,2.6588,2.6591,2.6746,2.6748,2.675,0,0,0,0,0,0,2.6286,2.6299,2.6406,2.636,2.6374,2.6408,2.6435,2.644,2.6459,2.6498,2.6505,2.6471,2.6537,2.6548,2.6602,2.6624,2.659,2.6594,2.6745,2.6747,2.6749,2.6752,0,0,0,0,0,0,2.6282,2.6298,2.6317,2.636,2.6376,2.645,2.6436,2.6443,2.6467,2.6467,2.6513,2.6519,2.6537,2.6595,2.6606,2.6629,2.6598,2.6743,2.6746,2.6748,2.675,2.6754,2.6758,0,0,0,0,0,2.6277,2.6316,2.6318,2.633,2.6401,2.6451,2.646,2.6479,2.6469,2.6489,2.6514,2.6518,2.662,2.66,2.6613,2.6638,2.6741,2.6745,2.6748,2.6749,2.6753,2.6757,0,0,0,0,0,0,2.6275,2.6321,2.6324,2.6378,2.641,2.6452,2.6478,2.6484,2.6521,2.6519,2.6542,2.6553,2.6605,2.6628,2.6605,2.6693,2.668,2.6686,2.6676,2.6681,2.6684,2.6677,2.6602,0,0,0,0,0,2.6281,2.6316,2.6356,2.6399,2.6415,2.6444,2.6467,2.6478,2.6514,2.6528,2.6557,2.6592,2.6632,2.6658,2.6698,2.6755,2.6765,2.6778,2.6782,2.6785,2.6789,2.6821,2.6827,2.676,2.676,2.676,0,0,2.6293,2.6323,2.6344,2.6399,2.6426,2.6463,2.6455,2.6496,2.6524,2.6534,2.6585,2.6609,2.665,2.6705,2.6731,2.6725,2.681,2.6789,2.6791,2.6794,2.6825,2.6831,2.6837,2.6763,2.6762,2.6762,0,0,2.6333,2.636,2.6398,2.6425,2.6465,2.6484,2.6494,2.6536,2.6551,2.6603,2.6611,2.6647,2.6716,2.6744,2.6768,2.6822,2.6826,2.6834,2.6853,2.6883,2.6888,2.6893,2.6911,2.6918,2.6839,2.6839,2.6839,0,2.6343,2.6399,2.6418,2.6457,2.6482,2.6492,2.6532,2.6558,2.661,2.6627,2.662,2.6706,2.6735,2.6797,2.681,2.6829,2.6841,2.6828,2.6886,2.6891,2.6896,2.6913,2.692,2.6839,2.6839,2.6839,2.6839,0,2.6409,2.6447,2.6474,2.6522,2.655,2.6589,2.6616,2.6642,2.6652,2.6673,2.6726,2.6761,2.6807,2.6824,2.6835,2.6888,2.6883,2.6881,2.6868,2.6902,2.6919,2.6926,2.684,2.684,2.684,2.684,0,0,2.6448,2.6506,2.6516,2.6538,2.6584,2.6614,2.6656,2.67,2.6722,2.6758,2.6793,2.6851,2.685,2.6877,2.6892,2.6919,2.6958,2.6914,2.6915,2.6919,2.7018,2.7018,2.7025,2.6962,2.6964,2.6965,2.7014,0,2.6492,2.6563,2.6583,2.6644,2.668,2.6692,2.6728,2.676,2.6782,2.6817,2.6841,2.6881,2.6877,2.6893,2.6921,2.6947,2.6978,2.6944,2.6995,2.6997,2.6982,2.7034,2.7034,2.7079,2.7021,2.7022,2.7023,0,2.6553,2.6589,2.6653,2.6694,2.671,2.6742,2.6784,2.6817,2.6856,2.6869,2.69,2.6912,2.6957,2.6943,2.7005,2.6982,2.7005,2.7021,2.7024,2.7028,2.701,2.7038,2.7094,2.71,2.7034,2.7033,2.7032,0,2.6573,2.6638,2.6685,2.6703,2.6753,2.6775,2.6798,2.6835,2.686,2.6898,2.6915,2.6958,2.6982,2.7016,2.704,2.7028,2.71,2.7088,2.7113,2.7112,2.7126,2.7124,2.7184,2.7144,2.7144,2.7143,2.7143,0,2.662,2.6658,2.6694,2.6722,2.6767,2.679,2.6833,2.6856,2.6889,2.6924,2.6938,2.697,2.7001,2.7038,2.7058,2.7106,2.7117,2.713,2.7134,2.7127,2.7125,2.7141,2.7138,2.7145,2.7145,2.7144,2.7144,0,2.6649,2.6675,2.6726,2.6769,2.6781,2.6812,2.6849,2.6878,2.6901,2.6944,2.6955,2.6991,2.7035,2.7063,2.712,2.7133,2.7186,2.719,2.7172,2.7173,2.7196,2.7193,2.7266,2.7277,2.7231,2.7231,2.7231,0,2.6676,2.6705,2.6752,2.6775,2.6797,2.6835,2.6861,2.6886,2.6912,2.6959,2.6982,2.7027,2.7064,2.7134,2.7166,2.721,2.7214,2.7237,2.7221,2.7213,2.7213,2.721,2.7213,2.7239,2.7239,2.724,2.724,0,2.672,2.6732,2.6768,2.6808,2.6839,2.6872,2.6906,2.6925,2.6956,2.6986,2.703,2.7059,2.7116,2.7161,2.7207,2.7232,2.7241,2.7245,2.7253,2.7245,2.7232,2.7238,2.7177,2.7243,2.7242,2.7242,2.7242,2.7242,2.6748,2.6775,2.6812,2.6852,2.688,2.6911,2.694,2.6966,2.7003,2.7051,2.7064,2.7111,2.715,2.7213,2.7239,2.7277,2.7274,2.7285,2.7288,2.729,2.7289,2.7228,2.7286,2.7286,2.7286,2.7286,2.7286,0,2.6792,2.6817,2.6853,2.69,2.6931,2.6937,2.6975,2.7002,2.7042,2.7077,2.7113,2.7165,2.7208,2.7243,2.7289,2.7312,2.7317,2.7323,2.732,2.7326,2.729,2.7278,2.7318,2.7318,2.7318,2.7318,2.7318,2.7318,2.6819,2.6864,2.688,2.6941,2.6966,2.701,2.7031,2.7061,2.7089,2.7145,2.7181,2.7203,2.7239,2.7287,2.7328,2.7337,2.7353,2.7357,2.7367,2.7332,2.7329,2.7325,2.7314,2.736,2.736,2.74,2.74,2.74]},{"header":{"parameterUnit":"m.s-1","parameterCategory":1,"la1":30.2991,"la2":30.254,"lo1":-89.0895,"lo2":-89.0444,"dy":0.0017,"dx":0.0017,"nx":28,"ny":28,"refTime":"2024-07-04T03:00:00:Z","depth":0,"parameterNumber":3,"parameterNumberName":"V-component_of_WINDS"},"data":[0,0,0,0,0,0,0,0,0,0,0,0,0,0,0,0,0,0,0,0,0,0,0,0,0,0,0,0,0,0,0,0,0,0,0,0,0,0,0,0,0,0,0,0,0,0,0,0,0,0,0,0,0,0,0,0,0,0,4.2883,4.2884,0,4.2967,4.2968,4.2969,4.2987,4.2986,4.2986,4.2985,4.3063,4.3065,4.3068,0,0,0,0,0,0,0,0,0,0,0,0,0,4.2728,4.2731,4.2883,4.2884,4.2885,4.2967,4.2968,4.2969,4.2987,4.2986,4.2986,4.2985,4.3062,4.3065,4.3068,0,0,0,0,0,0,0,0,0,0,0,0,0,4.2802,4.2732,4.2883,4.2904,4.2907,4.2967,4.2968,4.297,4.2987,4.2986,4.2985,4.2985,4.3061,4.3065,4.3068,4.311,0,0,4.308,4.3082,0,0,0,0,0,0,0,0,4.2798,4.2808,4.29,4.2903,4.2906,4.2966,4.2942,4.3016,4.2987,4.2957,4.2985,4.2984,4.3031,4.3037,4.3054,4.3114,4.3117,4.3081,4.3083,4.3085,4.3086,0,0,0,0,0,0,0,4.2793,4.2804,4.2916,4.2901,4.2905,4.2906,4.2916,4.2956,4.2997,4.2959,4.2961,4.2971,4.3032,4.3051,4.3056,4.3118,4.3081,4.3084,4.3087,4.3088,4.3213,4.3214,0,0,0,0,0,0,4.2785,4.28,4.2913,4.2919,4.2849,4.291,4.292,4.2947,4.2997,4.3004,4.2972,4.2971,4.3044,4.3052,4.3059,4.3109,4.3085,4.3088,4.3091,4.3212,4.3213,4.3214,0,0,0,0,0,0,4.2782,4.2795,4.291,4.286,4.2874,4.2914,4.2944,4.295,4.2968,4.3006,4.3013,4.2984,4.3044,4.3054,4.3097,4.3112,4.309,4.3094,4.3211,4.3212,4.3214,4.3211,0,0,0,0,0,0,4.2777,4.2794,4.2813,4.286,4.2877,4.295,4.2945,4.2952,4.2976,4.2977,4.3019,4.3025,4.3044,4.3091,4.3101,4.3117,4.3097,4.3209,4.3211,4.3213,4.321,4.3212,4.3214,0,0,0,0,0,4.2772,4.2807,4.2814,4.2827,4.2902,4.2951,4.296,4.2983,4.2977,4.2994,4.3018,4.3024,4.3109,4.3096,4.3107,4.3124,4.3209,4.3211,4.3213,4.3209,4.3212,4.3214,0,0,0,0,0,0,4.2758,4.2814,4.2822,4.2874,4.2908,4.2954,4.2977,4.2986,4.302,4.3018,4.3043,4.3052,4.3094,4.3113,4.3097,4.3166,4.3158,4.3163,4.3151,4.3155,4.3157,4.315,4.31,0,0,0,0,0,4.2762,4.28,4.2846,4.2887,4.2904,4.2937,4.296,4.2975,4.3009,4.3022,4.305,4.3081,4.3114,4.3135,4.3169,4.3213,4.3221,4.323,4.3232,4.3234,4.3237,4.3259,4.3263,4.3221,4.3221,4.3221,0,0,4.2769,4.2804,4.2826,4.2886,4.2913,4.2949,4.2949,4.2987,4.3013,4.3027,4.3071,4.3091,4.3127,4.3171,4.3191,4.3188,4.3251,4.3237,4.3238,4.324,4.3262,4.3266,4.3269,4.3223,4.3222,4.3222,0,0,4.2799,4.2831,4.2869,4.2897,4.294,4.2961,4.297,4.3015,4.303,4.3074,4.3085,4.3114,4.3172,4.3196,4.3216,4.3254,4.3259,4.3264,4.3274,4.3296,4.3299,4.3302,4.3313,4.3317,4.3267,4.3267,4.3267,0,4.2802,4.2859,4.2886,4.2924,4.2948,4.2965,4.3001,4.3026,4.3076,4.3091,4.3087,4.3159,4.3185,4.3233,4.3242,4.3258,4.3267,4.3259,4.3297,4.33,4.3303,4.3314,4.3319,4.3267,4.3267,4.3267,4.3267,0,4.2858,4.2898,4.2922,4.2973,4.3,4.3036,4.3065,4.3089,4.31,4.3121,4.3164,4.3195,4.3234,4.3246,4.3258,4.3296,4.3292,4.3293,4.3285,4.3307,4.3318,4.3322,4.3267,4.3267,4.3267,4.3267,0,0,4.2883,4.2948,4.2956,4.2978,4.3026,4.3055,4.309,4.3131,4.3149,4.3182,4.3211,4.3259,4.3259,4.3281,4.3295,4.3314,4.3339,4.3312,4.3313,4.3314,4.338,4.3378,4.3383,4.3343,4.3344,4.3345,4.3376,0,4.2918,4.2986,4.301,4.3064,4.3098,4.3114,4.3145,4.3175,4.3195,4.3225,4.3245,4.3278,4.3278,4.3291,4.331,4.3332,4.3352,4.333,4.3367,4.3368,4.3356,4.3389,4.3388,4.3415,4.338,4.3381,4.3382,0,4.2968,4.3004,4.3063,4.3104,4.312,4.3147,4.3185,4.3214,4.3247,4.326,4.3285,4.3297,4.3331,4.3322,4.3368,4.3352,4.3368,4.3381,4.3382,4.3385,4.3375,4.3391,4.3425,4.3429,4.3389,4.3388,4.3388,0,4.2977,4.304,4.3083,4.3102,4.3152,4.317,4.3192,4.3225,4.3247,4.3278,4.3292,4.3326,4.3345,4.3369,4.3389,4.3381,4.3432,4.3425,4.344,4.344,4.345,4.3448,4.3485,4.3462,4.3462,4.3462,4.3462,0,4.3013,4.3047,4.3088,4.3114,4.3151,4.3177,4.3213,4.3235,4.3264,4.3291,4.3306,4.3331,4.3357,4.3384,4.34,4.3433,4.3442,4.3451,4.3454,4.3449,4.3447,4.3459,4.3456,4.3463,4.3463,4.3463,4.3463,0,4.3029,4.3059,4.3106,4.315,4.3161,4.3187,4.3223,4.3247,4.3267,4.3302,4.3311,4.3342,4.3375,4.3398,4.3439,4.345,4.3485,4.3489,4.3475,4.3476,4.349,4.3487,4.3534,4.354,4.3514,4.3515,4.3515,0,4.3049,4.3077,4.3124,4.3145,4.3167,4.3201,4.3223,4.3249,4.3271,4.3311,4.3329,4.3363,4.3392,4.3443,4.3467,4.3498,4.3502,4.3516,4.3507,4.35,4.35,4.3498,4.3499,4.3517,4.3517,4.3517,4.3518,0,4.3081,4.3094,4.3128,4.3167,4.3194,4.3225,4.3256,4.3271,4.3301,4.3325,4.336,4.3383,4.3426,4.3459,4.3492,4.351,4.3518,4.3521,4.3525,4.352,4.3509,4.3513,4.3477,4.3519,4.3519,4.3519,4.3519,4.3519,4.3099,4.3123,4.316,4.3196,4.3223,4.3251,4.3275,4.3299,4.333,4.3369,4.3381,4.3417,4.3447,4.3493,4.3511,4.3537,4.3536,4.3543,4.3545,4.3546,4.3545,4.3507,4.3543,4.3543,4.3543,4.3543,4.3543,0,4.3129,4.3154,4.3188,4.3231,4.3259,4.3267,4.3301,4.3323,4.3355,4.3384,4.3413,4.3451,4.3483,4.351,4.3541,4.3557,4.3561,4.3564,4.3562,4.3566,4.3545,4.3537,4.356,4.356,4.356,4.356,4.356,4.356,4.3149,4.3189,4.3206,4.3259,4.3282,4.332,4.3338,4.3363,4.3386,4.343,4.3457,4.3475,4.3502,4.3536,4.3564,4.3571,4.3581,4.3583,4.359,4.357,4.3568,4.3566,4.3558,4.3585,4.3585,4.3608,4.3609,4.3609]}]]